[[{"header":{"parameterUnit":"m.s-1","parameterCategory":1,"la1":30.2991,"la2":30.254,"lo1":-89.0895,"lo2":-89.0444,"dy":0.0017,"dx":0.0017,"nx":28,"ny":28,"refTime":"2025-04-30T21:00:00:Z","depth":0,"parameterNumber":2,"parameterNumberName":"U-component_of_WINDS"},"data":[0,0,0,0,0,0,0,0,0,0,0,0,0,0,0,0,0,0,0,0,0,0,0,0,0,0,0,0,0,0,0,0,0,0,0,0,0,0,0,0,0,0,0,0,0,0,0,0,0,0,0,0,0,0,0,0,0,0,-4.4548,-4.455,0,-4.4661,-4.4663,-4.4664,-4.4664,-4.4662,-4.4661,-4.4659,-4.4769,-4.4773,-4.4777,0,0,0,0,0,0,0,0,0,0,0,0,0,-4.4326,-4.433,-4.4548,-4.455,-4.4551,-4.4661,-4.4663,-4.4664,-4.4664,-4.4662,-4.466,-4.4659,-4.4767,-4.4772,-4.4777,0,0,0,0,0,0,0,0,0,0,0,0,0,-4.4429,-4.4331,-4.4548,-4.4564,-4.4567,-4.4661,-4.4663,-4.4665,-4.4664,-4.4662,-4.466,-4.4658,-4.4765,-4.4772,-4.4778,-4.4861,0,0,-4.4797,-4.48,0,0,0,0,0,0,0,0,-4.4423,-4.4437,-4.4561,-4.4564,-4.4567,-4.4646,-4.4624,-4.473,-4.4665,-4.4627,-4.4659,-4.4657,-4.4729,-4.4738,-4.4764,-4.4866,-4.4871,-4.4798,-4.4802,-4.4805,-4.4806,0,0,0,0,0,0,0,-4.4416,-4.4432,-4.4593,-4.4562,-4.4566,-4.4564,-4.4576,-4.4644,-4.4689,-4.463,-4.4631,-4.4644,-4.473,-4.4758,-4.4767,-4.4872,-4.4798,-4.4804,-4.4807,-4.481,-4.5046,-4.5048,0,0,0,0,0,0,-4.4406,-4.4426,-4.4589,-4.4596,-4.4488,-4.457,-4.4583,-4.4623,-4.4688,-4.4696,-4.4646,-4.4644,-4.4748,-4.4759,-4.4771,-4.487,-4.4805,-4.4811,-4.4814,-4.5043,-4.5046,-4.5049,0,0,0,0,0,0,-4.4402,-4.4421,-4.4585,-4.4511,-4.4532,-4.4576,-4.462,-4.4626,-4.4654,-4.47,-4.4707,-4.4667,-4.4747,-4.4762,-4.4838,-4.4874,-4.4813,-4.4819,-4.504,-4.5044,-4.5047,-4.5071,0,0,0,0,0,0,-4.4395,-4.4419,-4.4453,-4.4512,-4.4536,-4.4653,-4.4622,-4.463,-4.4666,-4.4664,-4.4721,-4.4729,-4.4746,-4.4829,-4.4845,-4.4882,-4.4824,-4.5037,-4.5042,-4.5046,-4.5068,-4.5075,-4.5082,0,0,0,0,0,-4.4387,-4.4454,-4.4454,-4.4474,-4.4579,-4.4655,-4.4668,-4.4689,-4.4669,-4.4701,-4.4731,-4.4727,-4.4868,-4.4837,-4.4855,-4.4894,-4.5035,-4.5041,-4.5046,-4.5064,-4.5074,-4.5082,0,0,0,0,0,0,-4.4395,-4.4462,-4.4463,-4.4552,-4.4598,-4.4655,-4.4697,-4.4699,-4.475,-4.4746,-4.4768,-4.4781,-4.4857,-4.4883,-4.4847,-4.4977,-4.4949,-4.4958,-4.4957,-4.4966,-4.4973,-4.4964,-4.483,0,0,0,0,0,-4.4408,-4.4466,-4.452,-4.4593,-4.4616,-4.4653,-4.4686,-4.4699,-4.4746,-4.4765,-4.48,-4.4845,-4.4899,-4.4934,-4.4987,-4.5072,-4.5083,-4.5108,-4.5115,-4.5121,-4.5128,-4.5173,-4.5184,-4.5067,-4.5067,-4.5067,0,0,-4.4433,-4.4477,-4.4512,-4.4596,-4.4633,-4.469,-4.4669,-4.4731,-4.4772,-4.4774,-4.4849,-4.4876,-4.4927,-4.5008,-4.5045,-4.5032,-4.5163,-4.5128,-4.5132,-4.5136,-4.518,-4.5191,-4.52,-4.507,-4.507,-4.5069,0,0,-4.4509,-4.4549,-4.4613,-4.4651,-4.4708,-4.4732,-4.4748,-4.4805,-4.4823,-4.4899,-4.4901,-4.495,-4.5044,-4.508,-4.511,-4.5199,-4.5196,-4.5216,-4.5253,-4.5296,-4.5306,-4.5314,-4.5343,-4.5354,-4.5223,-4.5223,-4.5223,0,-4.4532,-4.4621,-4.4645,-4.4707,-4.4743,-4.4749,-4.4813,-4.4848,-4.4918,-4.4942,-4.4927,-4.5044,-4.5079,-4.5168,-4.5189,-4.5215,-4.5231,-4.5208,-4.5303,-4.5311,-4.5319,-4.5348,-4.5359,-4.5225,-4.5225,-4.5225,-4.5224,0,-4.4646,-4.4708,-4.4752,-4.4822,-4.4863,-4.4926,-4.4957,-4.4995,-4.5004,-4.5028,-4.5104,-4.5147,-4.5208,-4.523,-4.5238,-4.5319,-4.5309,-4.5299,-4.527,-4.5332,-4.5359,-4.537,-4.5228,-4.5227,-4.5226,-4.5226,0,0,-4.4729,-4.4812,-4.4828,-4.4859,-4.4923,-4.4969,-4.5031,-4.5093,-4.5124,-4.5172,-4.5223,-4.5302,-4.5293,-4.5327,-4.534,-4.5378,-4.5444,-4.5363,-4.5364,-4.5374,-4.5532,-4.5539,-4.5551,-4.5443,-4.5445,-4.5447,-4.5527,0,-4.481,-4.4922,-4.4945,-4.5042,-4.5097,-4.5104,-4.5157,-4.5201,-4.5225,-4.5274,-4.53,-4.5356,-4.534,-4.5361,-4.5399,-4.5428,-4.5475,-4.5422,-4.5487,-4.549,-4.5473,-4.5566,-4.5573,-4.5646,-4.5538,-4.554,-4.5542,0,-4.4919,-4.4972,-4.5074,-4.5129,-4.5153,-4.5202,-4.5259,-4.5307,-4.5355,-4.537,-4.5409,-4.5417,-4.5479,-4.545,-4.5534,-4.5498,-4.5526,-4.5543,-4.5547,-4.5552,-4.5518,-4.5571,-4.5671,-4.5681,-4.5559,-4.5557,-4.5556,0,-4.4966,-4.5063,-4.5136,-4.5163,-4.523,-4.5263,-4.5292,-4.5339,-4.5374,-4.5424,-4.5446,-4.5502,-4.5531,-4.5573,-4.5595,-4.5572,-4.5677,-4.565,-4.5689,-4.5688,-4.5709,-4.5707,-4.5813,-4.5731,-4.5731,-4.573,-4.573,0,-4.5053,-4.5115,-4.5159,-4.5203,-4.5272,-4.5297,-4.5364,-4.5392,-4.5433,-4.5482,-4.5491,-4.5536,-4.5563,-4.5612,-4.5629,-4.5695,-4.5709,-4.5721,-4.5724,-4.5719,-4.5717,-4.5736,-4.5731,-4.5733,-4.5733,-4.5732,-4.5732,0,-4.5117,-4.515,-4.5229,-4.5287,-4.5302,-4.535,-4.5398,-4.544,-4.5465,-4.5527,-4.5542,-4.5581,-4.5638,-4.5665,-4.5735,-4.5747,-4.5821,-4.5822,-4.5805,-4.5806,-4.5843,-4.5838,-4.5962,-4.5979,-4.5888,-4.5889,-4.5889,0,-4.517,-4.5217,-4.528,-4.5314,-4.5345,-4.54,-4.5436,-4.5462,-4.5499,-4.5557,-4.5592,-4.565,-4.5698,-4.5788,-4.5821,-4.5874,-4.5875,-4.5915,-4.5883,-4.5876,-4.5873,-4.5869,-4.5873,-4.592,-4.5921,-4.5922,-4.5922,0,-4.5258,-4.5272,-4.5325,-4.5383,-4.5427,-4.5473,-4.5519,-4.5546,-4.5579,-4.5619,-4.5679,-4.5716,-4.5788,-4.5845,-4.59,-4.5928,-4.593,-4.5933,-4.5944,-4.5938,-4.5925,-4.5931,-4.5818,-4.5929,-4.5928,-4.5928,-4.5928,-4.5927,-4.5317,-4.5359,-4.541,-4.5468,-4.5505,-4.5548,-4.559,-4.5621,-4.5672,-4.5734,-4.5746,-4.5809,-4.5854,-4.5929,-4.5959,-4.6006,-4.5997,-4.6014,-4.6018,-4.6021,-4.6022,-4.592,-4.6017,-4.6016,-4.6016,-4.6016,-4.6016,0,-4.5404,-4.5438,-4.5491,-4.5555,-4.56,-4.5601,-4.5652,-4.5688,-4.5744,-4.5788,-4.5835,-4.5902,-4.5957,-4.5994,-4.6049,-4.608,-4.6082,-4.6093,-4.609,-4.6096,-4.6029,-4.6012,-4.609,-4.609,-4.609,-4.609,-4.609,-4.609,-4.5455,-4.5526,-4.5546,-4.5634,-4.5666,-4.5729,-4.5758,-4.5796,-4.5831,-4.5906,-4.5952,-4.5977,-4.6017,-4.6075,-4.6125,-4.6134,-4.6152,-4.6164,-4.6172,-4.6108,-4.6101,-4.6093,-4.6078,-4.6168,-4.6168,-4.6235,-4.6236,-4.6236]},{"header":{"parameterUnit":"m.s-1","parameterCategory":1,"la1":30.2991,"la2":30.254,"lo1":-89.0895,"lo2":-89.0444,"dy":0.0017,"dx":0.0017,"nx":28,"ny":28,"refTime":"2025-04-30T21:00:00:Z","depth":0,"parameterNumber":3,"parameterNumberName":"V-component_of_WINDS"},"data":[0,0,0,0,0,0,0,0,0,0,0,0,0,0,0,0,0,0,0,0,0,0,0,0,0,0,0,0,0,0,0,0,0,0,0,0,0,0,0,0,0,0,0,0,0,0,0,0,0,0,0,0,0,0,0,0,0,0,6.3427,6.3428,0,6.3499,6.35,6.35,6.3474,6.3472,6.3471,6.3469,6.3535,6.3538,6.3542,0,0,0,0,0,0,0,0,0,0,0,0,0,6.326,6.3263,6.3427,6.3428,6.3429,6.3499,6.35,6.3501,6.3474,6.3472,6.347,6.3468,6.3534,6.3538,6.3542,0,0,0,0,0,0,0,0,0,0,0,0,0,6.3332,6.3264,6.3427,6.3424,6.3425,6.3499,6.35,6.3501,6.3475,6.3472,6.347,6.3468,6.3533,6.3538,6.3542,6.3621,0,0,6.3557,6.3559,0,0,0,0,0,0,0,0,6.3328,6.3338,6.3424,6.3424,6.3425,6.3475,6.3465,6.3541,6.3475,6.3455,6.3469,6.3466,6.3517,6.3523,6.3541,6.3624,6.3627,6.3558,6.3561,6.3563,6.3564,0,0,0,0,0,0,0,6.3323,6.3335,6.3455,6.3425,6.3426,6.3417,6.3425,6.3479,6.3498,6.3457,6.3455,6.3465,6.3516,6.3537,6.3543,6.3628,6.3558,6.3562,6.3565,6.3567,6.3777,6.378,0,0,0,0,0,0,6.3318,6.3331,6.3453,6.3457,6.337,6.3422,6.3431,6.3461,6.3498,6.3501,6.3467,6.3463,6.3529,6.3537,6.3545,6.3638,6.3563,6.3567,6.357,6.3775,6.3778,6.3781,0,0,0,0,0,0,6.3315,6.333,6.345,6.3394,6.3408,6.3428,6.3462,6.3464,6.3484,6.3505,6.3508,6.3484,6.3528,6.3538,6.3602,6.364,6.357,6.3574,6.3771,6.3776,6.3779,6.3826,0,0,0,0,0,0,6.331,6.3329,6.336,6.3395,6.3411,6.3509,6.3465,6.3467,6.3494,6.349,6.3522,6.3525,6.3527,6.3595,6.3607,6.3645,6.3578,6.3768,6.3773,6.3778,6.3821,6.3831,6.3839,0,0,0,0,0,6.3304,6.3369,6.3362,6.3377,6.3452,6.3511,6.352,6.3523,6.3497,6.3527,6.3541,6.3524,6.3635,6.3602,6.3615,6.3656,6.3766,6.3772,6.3778,6.3817,6.3829,6.3839,0,0,0,0,0,0,6.3335,6.3373,6.3366,6.3444,6.3475,6.3506,6.3545,6.3536,6.3572,6.3567,6.3567,6.3574,6.364,6.3655,6.3618,6.3733,6.3696,6.3705,6.3721,6.3733,6.3742,6.3736,6.3582,0,0,0,0,0,6.3351,6.3399,6.3428,6.3494,6.351,6.3525,6.3551,6.3551,6.3582,6.3594,6.3612,6.364,6.3681,6.3708,6.3747,6.3824,6.3829,6.3858,6.3867,6.3875,6.3881,6.3922,6.3934,6.38,6.38,6.38,0,0,6.3384,6.3411,6.344,6.3501,6.3525,6.3571,6.3536,6.3587,6.3621,6.36,6.3663,6.3678,6.3709,6.378,6.3812,6.3794,6.392,6.3882,6.3888,6.3891,6.3929,6.3942,6.3953,6.3804,6.3804,6.3803,0,0,6.3468,6.3494,6.3551,6.3577,6.3615,6.3624,6.3638,6.3672,6.3682,6.3745,6.3731,6.377,6.3841,6.3864,6.3885,6.398,6.3965,6.3992,6.4039,6.4079,6.4089,6.4099,6.4131,6.4143,6.4,6.4,6.4,0,6.3503,6.3575,6.3581,6.3634,6.366,6.3648,6.3704,6.3728,6.3775,6.3792,6.3772,6.3862,6.3882,6.3958,6.3981,6.3999,6.4013,6.3987,6.4088,6.4097,6.4106,6.4137,6.4149,6.4003,6.4002,6.4002,6.4002,0,6.3616,6.3666,6.3708,6.3757,6.3788,6.3842,6.3854,6.3885,6.3883,6.3894,6.3958,6.3983,6.4026,6.4045,6.4042,6.412,6.4107,6.4088,6.405,6.4122,6.415,6.4162,6.4007,6.4006,6.4005,6.4004,0,0,6.3718,6.3772,6.3787,6.3809,6.3851,6.3888,6.3942,6.3987,6.4012,6.4046,6.4089,6.4151,6.4133,6.4157,6.4157,6.4192,6.4264,6.4168,6.4169,6.4183,6.4349,6.4362,6.4376,6.4255,6.4258,6.4259,6.4346,0,6.3804,6.39,6.3908,6.3993,6.4039,6.4029,6.4075,6.4104,6.4116,6.4155,6.4167,6.4211,6.4185,6.42,6.4234,6.4248,6.4296,6.4242,6.4293,6.4294,6.4283,6.4391,6.4405,6.4486,6.4357,6.4359,6.4361,0,6.3916,6.3956,6.4047,6.4083,6.4102,6.4144,6.4186,6.4224,6.4257,6.4263,6.4291,6.4287,6.4339,6.4302,6.4373,6.4335,6.4357,6.4367,6.437,6.4373,6.433,6.4395,6.4512,6.4523,6.4379,6.4377,6.4376,0,6.398,6.4056,6.4121,6.414,6.4184,6.4213,6.4232,6.4263,6.429,6.4326,6.4343,6.4384,6.4406,6.4437,6.4443,6.4416,6.4514,6.4477,6.4518,6.4518,6.4537,6.4536,6.4657,6.4555,6.4555,6.4555,6.4554,0,6.4073,6.4129,6.415,6.4189,6.4251,6.4258,6.4318,6.4335,6.4363,6.4403,6.4396,6.4434,6.4441,6.4479,6.4484,6.4542,6.4552,6.4557,6.4557,6.4556,6.4555,6.4569,6.4562,6.4558,6.4557,6.4556,6.4556,0,6.4153,6.417,6.4239,6.4276,6.4287,6.433,6.436,6.4397,6.441,6.4461,6.4474,6.4492,6.4538,6.4548,6.46,6.4604,6.4672,6.4667,6.4661,6.466,6.47,6.4696,6.4833,6.485,6.4738,6.4739,6.474,0,6.4211,6.4254,6.4297,6.4325,6.4346,6.4391,6.442,6.4429,6.4458,6.4499,6.453,6.4576,6.4612,6.4685,6.4701,6.4742,6.4737,6.4782,6.4743,6.4741,6.4736,6.4732,6.4736,6.4789,6.479,6.4791,6.4792,0,6.4311,6.4318,6.436,6.4406,6.4441,6.4477,6.451,6.4533,6.4547,6.458,6.4628,6.4656,6.4712,6.4756,6.4797,6.4814,6.4804,6.4805,6.4816,6.4815,6.4809,6.4811,6.468,6.4801,6.48,6.4799,6.4799,6.4799,6.4381,6.4418,6.4455,6.4502,6.4529,6.4561,6.4598,6.4616,6.4657,6.4705,6.4707,6.4759,6.479,6.4845,6.4865,6.4904,6.4889,6.4906,6.491,6.4913,6.4916,6.4805,6.4911,6.4911,6.4911,6.491,6.491,0,6.4479,6.4502,6.4546,6.4595,6.4633,6.4625,6.4662,6.4692,6.4739,6.477,6.4807,6.4862,6.4905,6.4926,6.4969,6.4996,6.4992,6.5006,6.5003,6.5007,6.4928,6.4913,6.5008,6.5008,6.5008,6.5008,6.5008,6.5008,6.4534,6.4598,6.4609,6.4685,6.4707,6.476,6.4782,6.4811,6.4836,6.4898,6.4935,6.495,6.4976,6.5021,6.506,6.5065,6.508,6.5095,6.5098,6.5023,6.5013,6.5003,6.4989,6.5099,6.5099,6.5174,6.5175,6.5175]}]]